STARLINK-11330, 62011

Orbit data source: Space-Track

STARLINK-11330, 62011 is a payload satellite owned by SpaceX/Seattle (US) in LEO that was launched on Mon, 18 Nov 2024 UTC via an FALCON 9 launch vehicle from the Air Force Western Test Range (AFWTR). Payload-class satellites include a variety of spacecraft equipped with specific instruments for various scientific and technological missions. These include communications satellites like Starlink; space stations such as the ISS; scientific satellites like the Hubble; Earth observation satellites from companies like Planet Labs, Umbra, and HawkEye 360; GPS; miniature CubeSats for education and research; and military/defense satellites.

Loading next visibility...
Identifier
62011, 2024-213D
Orbit
LEO
Country
Flag of USUS
Related business
Manufacturer
SpaceX/Seattle
Mission
Operational Commercial Communications
Bus & Motor
STARLINK V2MD, Unknown motor
Mass
960 kg wet, ~910 kg dry
Launch date (UTC)
2024-11-18 (1 year ago)
Launch vehicle
FALCON 9
Launch site
Air Force Western Test Range (AFWTR)
Object type
Payload
Rocket body
Debris
Shape & HBR
Box + 2 Pan, 18.1 m
Radar Cross Section
36.964 m², Large (>1 m²)

Expand to show TLE details & history
Last TLE update: 6 hours ago

TLE from 6 hours ago
0 STARLINK-11330
1 62011U 24213D   25311.19966926  .00184900  00000-0  15007-2 0  9999
2 62011  53.1576 285.3201 0001265  58.4790 301.6351 15.69654904 55678
Epoch: 2025-11-07T04:47Z
TLE epoch observation values (Epoch: 2025-11-07T04:47:31.424Z)
Latitude
-0.00003°
Longitude
166.79209°
Altitude
360.352 km
Speed
7.695 km/s
True Right ascension
19h 01m 16s
True Declination
0° 00' 00"
Sunlit
Object was in daylight at epoch
Visualization orbit readout
Latitude
Unknown
Longitude
Unknown
Altitude
Unknown
Speed
Unknown
Apparent Right ascension
Unknown
Apparent Declination
Unknown
Sunlit
N/A
Visualization observer readout
Local Sidereal Time
06:47:50
Azimuth
Unknown
Elevation
Unknown
Doppler factor
Unknown
Orbital elements
Apogee altitude
360.998 km
Perigee altitude
359.293 km
Semi-major axis
6,738.282 km
Eccentricity
0.00013
Inclination
53.1576°
RAAN
285.3201°
Arg. of periapsis
58.479°
True anomaly
301.62276°
Mean anomaly
301.6351°
Eccentric anomaly
301.62893°
Mean motion
3.92391 °/min
Orbital period
91.75 mins
BSTAR
0.0015007
Loading maneuver chart data...
Computing Atmospheric mass density...
Loading historical data...
Loading historical data...
Loading historical data...
Loading historical data...
Loading historical data...
Loading historical data...
Loading historical data...

Documentation

Showing up to 5 results
|